Weather in Shuya

Russia / Novgorod Oblast     58°00′52″N   33°23′29″E
temp.,
°C
wind,
m/s
gust,
m/s
humid.,
%
clouds,
%
prec.,
mm/h
press.,
hPa
HPBL,
m
3 march, wed
wed300:00−3nw4119127 0.0 1017536
03:00−2wnw4109529 0.0 1018530
06:00−2wnw51092100 0.1 1016837
09:00−2w51090100 0.1 1016813
12:00−1w51089100 0.0 1015713
15:00−1w61188100 0.1 1013842
18:000w51385100 0.1 10101217
21:00+1w71496100 0.4 10061056
4 march, thu
thu400:00+1w71496100 1.0 10021056
03:000wnw71493100 2.5 10021267
06:00−3wnw4128989 0.4 1001684
09:00−4wnw498876 0.4 1003613
12:00−2nw367659 0.0 1002804
15:00−1nw357068 0.1 10021052
18:00−4nw228555 0.2 100271
21:00−5nw129368 0.2 100322
5 march, fri
fri500:00−5nnw489283 1.3 1003583
03:00−7nw399192 1.4 1005581
06:00−8nw4892100 0.1 1006563
09:00−7nw3787100 0.2 1008709
12:00−6nw4677100 0.1 1009914
15:00−5wnw4676100 0.3 1010956
18:00−7nw3786100 0.2 1011647
21:00−8nnw3792100 0.4 1015604
6 march, sat
sat600:00−11n259686 0.1 1016180
03:00−12nw129652 0.1 101732
06:00−12w259560 0.0 1017142
09:00−10w379045 0.0 1018366
12:00−7wnw4778100 0.1 1017887
15:00−5w4772100 0.1 10151107
18:00−6sw4980100 0.0 1012968
21:00−6sw71489100 0.3 10071095
7 march, sun
sun700:00−5sw81690100 1.2 10011400
03:00−4wsw81791100 2.9 9941288
06:00−2wsw81794100 2.3 9911451
09:00−9wnw5136183 3.3 9931311
12:00−7wsw6118139 0.1 9921380
15:00−7wnw7127869 0.9 9921656
18:00−8wnw51187100 0.7 9921345
21:00−8nnw5991100 1.7 995858